FW5447 Weather Reports


Display with metric or nautical units.
time (UTC)temp
F
wind
direction
speed
MPH
gust
MPH
rain 1hr
in
rain 24hr
in
rain mn
in
humidity
%
barometer
mb
20260508115518 56 37 6.0 13.0 0.00 0.00 0.00 30 1024.2
20260508114518 56 36 6.0 10.0 0.00 0.00 0.00 31 1024.2
20260508113518 56 60 5.0 14.0 0.00 0.00 0.00 30 1024.2
20260508112518 56 46 6.0 11.0 0.00 0.00 0.00 30 1024.2
20260508111518 56 20 6.0 11.0 0.00 0.00 0.00 31 1024.1
20260508110518 56 47 6.0 10.0 0.00 0.00 0.00 30 1024.2
20260508105518 55 47 5.0 10.0 0.00 0.00 0.00 29 1024.1
20260508104516 55 59 5.0 11.0 0.00 0.00 0.00 29 1024.1
20260508103515 55 47 5.0 9.0 0.00 0.00 0.00 29 1024.2
20260508102516 56 34 5.0 9.0 0.00 0.00 0.00 32 1024.0
20260508101516 55 40 4.0 9.0 0.00 0.00 0.00 32 1023.9
20260508100536 55 40 4.0 9.0 0.00 0.00 0.00 34 1024.0
20260508095516 55 36 5.0 9.0 0.00 0.00 0.00 33 1023.9
20260508094516 54 36 5.0 12.0 0.00 0.00 0.00 33 1024.0
20260508093516 55 47 5.0 9.0 0.00 0.00 0.00 33 1024.0
20260508092537 55 15 4.0 7.0 0.00 0.00 0.00 34 1023.7
20260508091517 54 25 5.0 10.0 0.00 0.00 0.00 35 1023.9
20260508090517 54 29 5.0 9.0 0.00 0.00 0.00 34 1023.7
20260508085537 53 36 6.0 10.0 0.00 0.00 0.00 34 1023.9
20260508084517 54 38 6.0 12.0 0.00 0.00 0.00 35 1023.8
20260508083517 53 43 5.0 10.0 0.00 0.00 0.00 36 1023.8
20260508082538 53 50 5.0 11.0 0.00 0.00 0.00 36 1023.8
20260508081518 53 29 6.0 13.0 0.00 0.00 0.00 35 1023.9
20260508080518 52 44 5.0 10.0 0.00 0.00 0.00 36 1023.8
20260508075538 53 46 6.0 11.0 0.00 0.00 0.00 35 1023.7
20260508074518 52 20 5.0 9.0 0.00 0.00 0.00 37 1023.6
20260508073516 52 42 6.0 11.0 0.00 0.00 0.00 37 1023.5
20260508072515 52 32 5.0 11.0 0.00 0.00 0.00 38 1023.3
20260508071536 51 38 6.0 11.0 0.00 0.00 0.00 38 1023.2
20260508070516 51 37 7.0 12.0 0.00 0.00 0.00 38 1023.1
20260508065536 51 49 4.0 9.0 0.00 0.00 0.00 38 1022.9
20260508064516 51 48 5.0 9.0 0.00 0.00 0.00 37 1022.8
20260508063537 50 24 6.0 12.0 0.00 0.00 0.00 37 1023.2
20260508062517 50 35 5.0 9.0 0.00 0.00 0.00 39 1023.4
20260508061517 49 34 5.0 10.0 0.00 0.00 0.00 43 1023.2
20260508060517 49 41 6.0 12.0 0.00 0.00 0.00 45 1022.9
20260508055517 49 30 4.0 9.0 0.00 0.00 0.00 48 1022.5
20260508054517 48 26 4.0 8.0 0.00 0.00 0.00 49 1022.2
20260508053517 47 41 4.0 7.0 0.00 0.00 0.00 53 1022.3
20260508052517 47 32 5.0 8.0 0.00 0.00 0.00 55 1022.5
20260508051518 46 28 4.0 8.0 0.00 0.00 0.00 57 1022.4
20260508050518 45 43 3.0 7.0 0.00 0.00 0.00 60 1022.3
20260508045518 44 42 4.0 8.0 0.00 0.00 0.00 62 1022.3
20260508044518 44 22 4.0 9.0 0.00 0.00 0.00 63 1022.4
20260508043518 43 40 5.0 11.0 0.00 0.00 0.00 64 1022.3
20260508042515 42 41 4.0 7.0 0.00 0.00 0.00 67 1022.1
20260508041516 40 353 2.0 4.0 0.00 0.00 0.00 70 1022.2
20260508040516 39 338 1.0 4.0 0.00 0.00 0.00 73 1022.1
20260508035516 37 340 1.0 4.0 0.00 0.00 0.00 76 1022.1
20260508034515 36 353 1.0 3.0 0.00 0.00 0.00 79 1022.0
20260508033536 34 309 1.0 4.0 0.00 0.00 0.00 82 1022.0
20260508032516 32 311 0.0 3.0 0.00 0.00 0.00 85 1021.9
20260508031517 30 316 0.0 1.0 0.00 0.00 0.00 89 1022.0
20260508030536 30 272 0.0 3.0 0.00 0.00 0.00 89 1022.2
20260508025516 29 300 1.0 3.0 0.00 0.00 0.00 89 1022.1
20260508024517 29 288 0.0 3.0 0.00 0.00 0.00 89 1022.0
20260508023517 29 281 1.0 4.0 0.00 0.00 0.00 89 1021.8
20260508022518 29 227 0.0 3.0 0.00 0.00 0.00 89 1022.0
20260508021517 29 287 0.0 3.0 0.00 0.00 0.00 89 1021.7
20260508020517 29 258 0.0 3.0 0.00 0.00 0.00 88 1021.6
20260508015517 29 301 0.0 1.0 0.00 0.00 0.00 88 1021.4
20260508014517 29 248 0.0 3.0 0.00 0.00 0.00 88 1021.3
20260508013518 29 299 1.0 3.0 0.00 0.00 0.00 88 1021.2
20260508012517 29 284 0.0 3.0 0.00 0.00 0.00 88 1021.2
20260508011536 29 224 0.0 1.0 0.00 0.00 0.00 88 1021.2
20260508010518 29 214 0.0 1.0 0.00 0.00 0.00 88 1021.1
20260508005516 29 261 0.0 2.0 0.00 0.00 0.00 87 1020.9
20260508004518 29 239 0.0 2.0 0.00 0.00 0.00 87 1020.9
20260508003516 29 191 0.0 1.0 0.00 0.00 0.00 87 1020.8
20260508002535 30 169 1.0 4.0 0.00 0.00 0.00 86 1020.7
20260508001536 30 286 0.0 1.0 0.00 0.00 0.00 86 1020.4
20260508000536 30 249 1.0 2.0 0.00 0.00 0.00 86 1020.5
20260507235536 30 247 0.0 2.0 0.00 0.00 0.00 86 1020.4
20260507234536 31 254 0.0 1.0 0.00 0.00 0.00 85 1020.3
20260507233537 31 250 0.0 1.0 0.00 0.00 0.00 84 1020.1
20260507232516 31 266 0.0 1.0 0.00 0.00 0.00 83 1020.1
20260507231517 30 213 0.0 1.0 0.00 0.00 0.00 84 1020.0
20260507230517 30 195 0.0 1.0 0.00 0.00 0.00 84 1019.9
20260507225517 31 152 0.0 1.0 0.00 0.00 0.00 83 1019.8
20260507224538 31 274 0.0 1.0 0.00 0.00 0.00 82 1019.6
20260507223517 31 259 0.0 1.0 0.00 0.00 0.00 83 1019.4
20260507222518 32 238 0.0 1.0 0.00 0.00 0.00 82 1019.4
20260507221518 32 244 0.0 1.0 0.00 0.00 0.00 82 1019.2
20260507220518 32 245 0.0 1.0 0.00 0.00 0.00 81 1019.2
20260507215518 32 239 0.0 1.0 0.00 0.00 0.00 80 1019.2
20260507214535 32 253 0.0 1.0 0.00 0.00 0.00 78 1019.0
20260507213515 33 253 0.0 1.0 0.00 0.00 0.00 76 1018.8
20260507212519 33 251 0.0 1.0 0.00 0.00 0.00 77 1018.8
20260507211555 33 249 0.0 1.0 0.00 0.00 0.00 76 1018.7
20260507210519 33 265 0.0 1.0 0.00 0.00 0.00 73 1018.7
20260507205516 33 211 0.0 1.0 0.00 0.00 0.00 72 1018.7
20260507204536 34 213 0.0 2.0 0.00 0.00 0.00 69 1018.6
20260507203516 34 169 0.0 2.0 0.00 0.00 0.00 70 1018.5
20260507202516 35 202 0.0 2.0 0.00 0.00 0.00 66 1018.4
20260507201517 36 242 1.0 3.0 0.00 0.00 0.00 63 1018.2
20260507200517 36 228 0.0 2.0 0.00 0.00 0.00 63 1018.1
20260507195517 37 224 0.0 1.0 0.00 0.00 0.00 62 1018.1
20260507194517 38 225 0.0 1.0 0.00 0.00 0.00 59 1018.0
20260507193517 39 225 0.0 3.0 0.00 0.00 0.00 58 1017.9
20260507192517 40 233 1.0 2.0 0.00 0.00 0.00 55 1017.7
20260507191517 41 239 0.0 1.0 0.00 0.00 0.00 52 1017.6
20260507190517 43 253 0.0 2.0 0.00 0.00 0.00 54 1017.5
20260507185518 44 268 0.0 1.0 0.00 0.00 0.00 47 1017.2
20260507184518 45 353 1.0 4.0 0.00 0.00 0.00 43 1017.0
20260507183518 46 334 1.0 2.0 0.00 0.00 0.00 42 1016.8
20260507182515 47 306 1.0 3.0 0.00 0.00 0.00 42 1016.7
20260507181516 48 316 1.0 3.0 0.00 0.00 0.00 37 1016.4
20260507180536 49 340 1.0 4.0 0.00 0.00 0.00 34 1016.1
20260507175536 50 345 2.0 4.0 0.00 0.00 0.00 34 1015.9
20260507174516 50 3 1.0 3.0 0.00 0.00 0.00 32 1015.8
20260507173516 51 8 2.0 4.0 0.00 0.00 0.00 29 1015.6
20260507172536 52 5 1.0 3.0 0.00 0.00 0.00 26 1015.4
20260507171516 52 19 1.0 5.0 0.00 0.00 0.00 25 1015.3
20260507170517 52 338 2.0 6.0 0.00 0.00 0.00 26 1015.2
20260507165518 53 29 2.0 5.0 0.00 0.00 0.00 28 1015.1
20260507164517 53 19 3.0 7.0 0.00 0.00 0.00 28 1014.9
20260507163537 53 39 3.0 7.0 0.00 0.00 0.00 29 1014.9
20260507162518 53 351 2.0 4.0 0.00 0.00 0.00 29 1015.0
20260507161517 54 32 2.0 5.0 0.00 0.00 0.00 31 1014.8
20260507160518 54 50 3.0 5.0 0.00 0.00 0.00 31 1014.6
20260507155518 54 22 3.0 7.0 0.00 0.00 0.00 31 1014.7
20260507154518 54 2 3.0 6.0 0.00 0.00 0.00 31 1014.6
20260507153518 54 45 4.0 7.0 0.00 0.00 0.00 31 1014.5
20260507152518 55 25 4.0 9.0 0.00 0.00 0.00 31 1014.6
20260507151516 55 47 3.0 6.0 0.00 0.00 0.00 33 1014.5
20260507150535 55 34 3.0 8.0 0.00 0.00 0.00 33 1014.6
20260507145518 55 28 4.0 8.0 0.00 0.00 0.00 32 1014.3
20260507144536 56 36 4.0 9.0 0.00 0.00 0.00 32 1013.8
20260507143516 55 14 3.0 10.0 0.00 0.00 0.00 33 1013.6
20260507142516 56 36 5.0 10.0 0.00 0.00 0.00 32 1013.6
20260507141516 55 45 5.0 10.0 0.00 0.00 0.00 32 1013.7
20260507140536 56 15 5.0 9.0 0.00 0.00 0.00 32 1013.8
20260507135516 55 44 4.0 8.0 0.00 0.00 0.00 33 1013.7
20260507134537 56 8 4.0 8.0 0.00 0.00 0.00 32 1013.8
20260507133517 56 8 4.0 9.0 0.00 0.00 0.00 32 1013.6
20260507132537 56 30 5.0 9.0 0.00 0.00 0.00 33 1013.2
20260507131517 56 42 6.0 9.0 0.00 0.00 0.00 33 1013.4
20260507130517 57 46 6.0 10.0 0.00 0.00 0.00 33 1013.3
20260507125517 57 46 5.0 9.0 0.00 0.00 0.00 31 1012.9
20260507124517 57 355 2.0 5.0 0.00 0.00 0.00 29 1012.8
20260507123518 57 40 5.0 10.0 0.00 0.00 0.00 28 1012.9
20260507122538 57 13 2.0 6.0 0.00 0.00 0.00 27 1012.6
20260507121518 57 37 5.0 9.0 0.00 0.00 0.00 28 1012.8
20260507120516 58 39 3.0 9.0 0.00 0.00 0.00 28 1012.6